Temperature
18 18 18 18 18 18 18 18 17 17 17 17 17 17 17 17 17 17 16 16 16 16 16 16 16 15 15 15 15 15 15 15 14 14 14 14 14 14
18 17 17 17 17 17 17 17 17 17 17 17 17 17 17 17 16 16 16 16 16 16 16 16 16 15 15 15 15 15 14 14 14 14 14 14 14 14
17 17 17 17 17 17 17 17 17 17 17 17 17 17 17 16 16 16 16 16 16 16 16 16 15 15 15 15 15 15 14 14 14 14 14 14 14 14
17 17 17 17 17 17 17 17 17 17 17 17 16 16 16 16 16 16 16 16 16 16 16 15 15 15 15 15 15 14 14 14 14 14 14 14 14 13
17 17 17 17 17 17 17 17 17 17 17 16 16 16 16 16 16 16 16 15 15 15 15 15 15 15 15 15 15 14 14 14 14 14 14 14 13 13
17 17 17 17 17 17 17 17 17 16 16 16 16 16 16 16 16 15 15 15 15 15 15 15 15 15 15 15 14 14 14 14 14 14 13 13 13 13
17 17 17 16 17 17 16 16 16 16 16 16 16 16 15 15 15 15 15 15 15 15 15 15 15 15 14 14 14 14 14 14 14 14 13 13 13 13
16 16 16 16 16 16 16 16 16 16 16 16 15 15 15 15 15 15 15 14 14 14 14 14 14 14 15 14 14 14 14 14 14 14 13 13 13 13
16 16 16 16 16 16 16 16 16 16 16 15 15 15 15 15 15 15 15 14 14 14 14 14 14 14 14 14 14 14 14 14 14 13 13 13 13 12
16 16 16 16 16 16 16 16 16 16 16 15 15 16 15 15 15 15 15 14 14 14 14 14 14 14 14 14 14 14 14 14 14 14 13 13 13 12
16 16 16 16 16 16 15 15 15 15 15 15 15 15 15 15 15 15 14 14 14 14 14 13 14 14 14 14 14 14 14 14 14 13 13 13 13 12
16 15 15 15 15 15 15 15 15 15 15 15 15 15 15 15 15 14 14 14 14 13 14 13 13 13 13 14 14 14 13 13 13 13 13 13 12 12
15 15 15 15 15 15 15 15 14 14 14 14 14 14 14 14 14 14 14 14 14 14 14 14 13 13 13 13 13 13 13 13 13 13 13 12 12 12
15 15 14 15 15 15 14 14 14 14 14 14 14 14 14 14 14 14 14 14 14 14 14 13 13 13 13 12 13 13 13 13 13 13 13 12 12 12
14 14 14 14 14 14 14 14 14 14 14 13 13 13 13 14 13 13 13 13 13 13 13 13 13 13 13 12 12 12 13 13 13 12 12 12 12 12
14 14 14 14 14 14 14 14 13 13 13 13 13 13 13 13 13 13 13 13 13 13 13 13 13 13 12 12 12 12 12 12 12 12 12 12 12 11
14 14 14 13 13 13 13 13 13 13 13 13 12 13 13 13 12 13 13 13 12 12 12 12 12 12 12 12 12 12 12 12 12 12 11 11 11 11
13 13 13 13 13 13 12 12 12 12 12 12 12 12 12 12 12 12 12 12 12 12 12 12 12 12 12 12 12 12 12 12 11 11 11 11 11 11
13 13 12 12 12 12 12 12 12 12 12 12 11 11 11 11 11 11 11 11 11 12 12 11 11 11 11 11 12 12 12 11 11 11 11 11 11 11
12 12 12 12 12 12 12 12 12 11 11 11 11 11 11 11 11 11 11 11 11 11 11 11 11 11 11 11 11 11 11 11 11 11 11 11 11 11
11 11 11 11 11 11 11 11 11 11 11 11 11 11 11 11 11 11 11 11 10 10 10 11 11 11 11 10 10 10 11 11 11 10 10 10 10 10
11 11 11 11 11 11 10 10 10 10 10 10 10 10 10 10 10 10 10 10 10 10 10 10 10 10 10 10 10 10 10 10 10 10 10 10 10 10
10 10 10 10 10 10 10 10 9 9 9 9 9 9 9 9 9 9 9 9 9 9 9 10 10 10 10 10 10 10 10 10 10 10 10 10 9 9
Wind_Speed
3 3 3 3 3 2 2 2 2 3 3 3 2 3 5 7 9 10 10 14 15 14 13 13 12 11 11 10 9 9 8 7 6 5 6 6 6 5
3 4 4 3 3 3 3 3 3 3 3 2 2 2 3 4 9 9 10 12 14 15 15 14 14 13 13 12 11 10 9 8 8 7 6 6 6 6
4 4 5 4 3 3 3 3 3 2 4 3 2 2 3 3 4 6 8 9 10 15 16 16 15 15 14 13 13 12 11 10 10 9 8 8 7 7
4 4 4 4 4 3 3 3 3 3 3 4 3 2 3 4 4 4 5 7 8 12 16 16 16 16 16 15 15 14 13 13 12 11 10 9 9 8
4 4 4 4 4 4 4 4 3 4 3 4 4 2 2 3 4 4 4 4 7 9 14 15 17 17 17 17 16 16 15 15 14 13 12 11 10 10
4 5 5 5 5 5 5 4 4 3 3 3 3 3 3 3 3 4 4 4 5 6 8 10 14 17 18 18 18 17 17 16 16 15 14 13 12 11
4 4 4 4 5 4 4 3 4 3 3 3 4 3 3 3 3 4 4 4 4 4 4 5 7 9 12 16 18 19 19 18 18 17 16 15 14 13
3 3 3 3 4 4 4 4 5 5 4 4 4 4 4 3 4 4 4 4 4 3 4 5 6 6 8 11 17 21 22 21 20 19 18 17 16 15
3 3 5 4 2 3 4 5 6 6 7 5 6 6 5 5 5 6 5 5 6 4 4 5 5 6 7 11 17 20 22 22 21 20 19 18 17 16
4 4 4 3 3 3 3 3 4 5 7 7 7 7 6 4 6 6 6 5 5 4 4 5 5 6 6 7 15 19 21 21 22 21 20 19 18 17
4 4 4 3 3 3 3 4 4 5 6 6 7 7 8 9 6 4 5 5 5 5 4 5 5 5 5 5 10 16 18 20 21 21 20 20 18 16
3 3 4 3 3 2 3 4 5 5 5 5 5 7 8 9 10 8 7 6 5 4 4 5 5 4 4 4 4 8 12 16 19 19 20 19 18 13
4 3 1 0 2 4 5 5 6 6 5 5 5 5 5 6 7 8 8 7 7 6 4 4 4 4 4 3 4 5 7 7 10 12 17 19 19 16
4 3 2 3 4 5 5 6 7 6 5 5 5 5 5 5 5 6 8 8 8 8 7 5 5 5 5 5 4 4 6 7 8 7 9 13 17 20
3 4 4 4 4 4 6 7 5 4 4 5 6 6 5 5 4 4 5 7 8 9 10 8 6 5 5 6 6 4 4 5 6 6 7 7 8 8
3 4 5 5 4 5 4 4 4 4 4 5 5 5 4 4 4 4 5 5 6 6 7 10 8 7 7 7 6 5 4 4 5 5 6 6 8 10
3 4 4 3 3 3 3 3 3 3 4 4 4 4 4 5 4 4 4 5 6 6 5 5 6 7 7 7 6 6 6 5 5 6 5 6 7 8
2 4 4 3 3 3 3 3 3 3 3 4 4 5 5 5 5 4 4 5 6 6 6 5 4 4 4 6 8 7 6 5 5 5 5 6 7 7
2 4 3 3 3 3 3 3 3 3 3 4 4 5 5 5 5 5 5 5 5 6 5 4 4 5 6 7 5 7 7 6 5 5 6 6 7 6
2 3 3 3 3 4 4 3 3 3 3 3 4 5 4 5 5 5 5 5 5 5 6 5 5 5 7 7 5 5 9 7 5 6 6 6 6 6
2 3 3 4 4 4 4 4 4 4 4 4 4 5 4 5 5 5 5 6 6 6 7 6 6 8 6 4 5 5 5 9 9 6 6 5 5 5
3 3 3 4 4 3 4 4 4 4 5 5 5 5 5 5 6 6 6 6 6 6 7 6 5 5 5 6 8 7 6 4 7 10 9 7 5 5
3 4 4 4 3 3 4 4 4 4 5 5 5 6 7 6 6 6 7 6 6 7 7 7 5 5 6 7 7 7 6 5 4 5 6 9 11 10
Wind_Direction
238 241 247 259 262 251 233 226 228 254 249 234 217 190 173 174 178 181 182 188 191 195 199 204 208 209 208 207 209 210 212 213 218 225 229 230 234 240
230 236 240 252 248 243 239 241 237 245 260 246 229 194 177 189 184 184 188 189 196 199 204 207 209 210 210 210 210 210 211 213 216 219 223 227 232 238
239 234 237 248 256 259 244 235 234 227 252 263 243 206 196 191 174 186 191 191 199 204 207 209 210 211 211 210 210 210 212 215 217 219 223 228 231 234
246 247 244 247 246 257 267 260 247 229 231 245 243 216 208 191 183 203 200 207 202 209 209 209 211 212 213 213 213 213 215 217 218 219 222 227 231 232
242 245 248 244 242 245 247 258 257 255 231 237 239 222 209 197 187 211 221 217 219 212 209 211 214 215 216 217 217 217 218 219 220 220 222 224 228 230
245 243 245 241 239 245 246 249 260 264 244 243 238 219 213 204 196 214 228 227 232 222 208 210 214 217 220 220 219 219 221 222 222 222 223 224 227 228
252 247 245 242 233 241 254 251 251 252 251 247 244 234 228 204 217 229 234 232 234 220 206 212 208 212 218 222 221 222 221 221 222 223 224 225 227 229
271 272 256 246 234 231 249 260 253 247 250 255 258 246 232 220 218 231 236 245 247 220 220 232 214 218 215 214 217 217 218 219 221 223 224 225 226 227
264 272 273 268 249 247 245 254 255 246 236 243 254 255 244 225 221 231 232 235 242 231 223 239 229 233 226 228 218 217 217 218 220 222 222 223 225 226
248 250 259 272 270 272 250 249 251 247 241 240 250 260 259 245 228 229 235 241 243 230 213 242 236 239 242 225 218 215 216 218 221 221 221 222 225 227
258 258 254 242 248 265 263 258 258 260 261 261 250 248 247 244 240 236 234 236 253 244 217 232 244 247 240 232 219 215 218 221 222 221 221 222 223 224
259 251 249 242 243 242 253 261 262 267 276 275 264 259 252 243 229 227 230 235 246 247 221 222 242 241 249 235 215 212 218 223 222 222 222 223 220 215
275 271 266 157 265 258 252 256 258 272 277 268 260 254 249 244 234 228 228 232 238 243 229 212 235 232 233 246 233 213 208 212 217 225 225 224 218 211
283 293 308 289 277 269 258 260 267 274 272 274 271 264 258 253 244 238 229 230 237 241 238 224 236 235 240 253 255 225 214 211 208 211 216 218 221 223
290 307 313 293 274 265 252 252 259 259 260 267 269 268 266 260 253 242 243 239 242 249 243 233 231 238 238 249 252 240 232 227 212 211 208 206 208 213
300 298 286 267 262 258 259 254 247 253 257 263 272 276 278 269 262 255 250 245 248 252 246 237 231 227 239 247 248 246 234 223 217 212 208 213 213 214
283 277 266 267 267 259 252 251 253 253 258 265 271 279 280 276 270 268 255 253 252 257 260 249 237 233 238 240 244 242 238 237 224 213 216 225 223 218
244 264 266 268 273 278 276 272 268 269 272 271 268 270 276 279 276 272 266 256 257 259 258 252 244 246 252 253 233 238 238 235 232 219 216 226 234 226
244 269 279 291 294 299 297 294 291 289 287 292 289 281 280 282 282 278 273 270 266 266 266 260 248 241 251 261 253 223 231 236 228 226 223 227 233 227
281 294 302 301 301 310 317 320 313 307 300 299 296 295 295 292 288 282 276 277 278 277 272 263 252 244 244 255 264 257 225 227 230 233 233 233 234 227
316 314 316 317 320 321 323 326 329 329 332 325 317 314 306 299 295 293 290 284 275 271 270 263 254 250 251 250 262 263 249 220 221 230 232 231 234 228
337 340 336 335 335 332 334 337 338 337 338 334 334 327 317 309 303 297 292 291 285 280 278 271 261 257 251 247 253 257 259 246 229 235 241 238 226 225
338 337 335 336 341 343 343 342 342 340 337 337 334 327 320 314 309 302 297 295 296 293 289 282 275 265 259 252 252 254 252 249 247 235 242 241 240 241
Height
1542 1542 1543 1543 1544 1545 1545 1545 1546 1545 1545 1545 1545 1545 1544 1544 1543 1543 1544 1544 1545 1546 1546 1547 1547 1547 1547 1547 1547 1547 1548 1548 1548 1549 1549 1549 1549 1549
1540 1540 1541 1541 1541 1542 1542 1543 1543 1543 1542 1541 1542 1542 1542 1541 1541 1541 1541 1541 1542 1543 1543 1543 1544 1543 1543 1544 1544 1544 1544 1545 1545 1545 1546 1546 1546 1546
1537 1538 1538 1538 1539 1539 1539 1539 1539 1540 1539 1538 1539 1539 1539 1539 1538 1538 1538 1538 1539 1539 1540 1540 1540 1540 1540 1540 1540 1541 1541 1541 1542 1542 1542 1542 1543 1543
1534 1535 1535 1535 1535 1536 1536 1536 1536 1536 1536 1535 1535 1536 1536 1535 1535 1535 1535 1535 1535 1536 1536 1536 1536 1537 1537 1537 1537 1537 1537 1537 1538 1538 1538 1539 1539 1539
1531 1531 1532 1532 1532 1532 1532 1533 1533 1533 1533 1533 1532 1532 1532 1532 1532 1532 1532 1532 1532 1532 1532 1532 1533 1533 1533 1533 1533 1533 1534 1534 1534 1534 1534 1535 1535 1535
1528 1528 1529 1529 1528 1528 1529 1529 1529 1529 1530 1529 1529 1528 1528 1528 1528 1528 1528 1529 1529 1529 1528 1529 1529 1529 1529 1529 1529 1529 1529 1530 1530 1530 1530 1530 1531 1531
1525 1525 1525 1525 1525 1525 1526 1525 1526 1526 1526 1526 1525 1525 1525 1524 1524 1525 1525 1525 1525 1525 1525 1525 1525 1525 1525 1525 1525 1525 1525 1525 1526 1526 1526 1526 1526 1527
1521 1522 1522 1522 1522 1522 1522 1522 1522 1522 1521 1522 1522 1521 1521 1520 1521 1521 1521 1521 1521 1522 1521 1520 1521 1520 1520 1520 1521 1521 1521 1521 1521 1521 1522 1522 1522 1522
1518 1518 1519 1519 1518 1518 1518 1517 1517 1517 1518 1518 1517 1517 1517 1516 1517 1516 1516 1516 1516 1517 1517 1515 1516 1515 1516 1516 1516 1516 1517 1517 1517 1517 1517 1517 1518 1518
1515 1515 1515 1514 1514 1514 1513 1513 1513 1513 1513 1513 1513 1512 1512 1512 1513 1513 1512 1512 1512 1512 1512 1511 1511 1510 1510 1510 1511 1511 1511 1512 1512 1512 1512 1513 1513 1513
1511 1511 1511 1510 1510 1510 1509 1508 1508 1508 1508 1508 1508 1508 1507 1507 1508 1508 1507 1507 1506 1506 1507 1507 1506 1505 1505 1505 1505 1505 1506 1506 1507 1507 1507 1508 1508 1508
1507 1507 1507 1506 1506 1505 1505 1504 1504 1503 1503 1503 1503 1502 1502 1502 1502 1502 1502 1502 1501 1500 1501 1501 1501 1501 1500 1499 1499 1499 1500 1500 1501 1502 1502 1502 1503 1503
1503 1503 1503 1502 1501 1501 1501 1500 1500 1500 1499 1498 1498 1497 1497 1496 1496 1496 1496 1496 1496 1495 1496 1496 1496 1496 1495 1494 1493 1494 1494 1494 1495 1495 1496 1497 1497 1497
1500 1499 1499 1498 1498 1497 1497 1496 1496 1495 1495 1494 1493 1492 1492 1491 1490 1490 1490 1490 1490 1490 1491 1491 1490 1490 1489 1488 1488 1487 1488 1488 1488 1489 1489 1490 1491 1491
1496 1495 1495 1494 1494 1493 1493 1492 1492 1491 1490 1489 1488 1488 1487 1486 1486 1485 1484 1484 1484 1484 1485 1485 1484 1484 1484 1483 1482 1482 1482 1482 1482 1482 1483 1483 1484 1484
1492 1491 1491 1491 1490 1489 1488 1488 1487 1487 1486 1485 1484 1483 1483 1482 1481 1480 1479 1479 1478 1478 1478 1478 1478 1478 1477 1477 1477 1476 1476 1476 1476 1476 1477 1477 1477 1478
1488 1488 1487 1487 1486 1485 1485 1484 1483 1483 1482 1481 1480 1479 1478 1477 1476 1475 1474 1473 1473 1472 1471 1472 1472 1472 1471 1471 1470 1470 1470 1470 1470 1470 1471 1471 1471 1471
1485 1484 1484 1484 1483 1482 1481 1481 1480 1479 1478 1478 1476 1475 1474 1473 1471 1470 1469 1468 1467 1467 1466 1466 1466 1466 1465 1464 1464 1463 1463 1463 1464 1464 1464 1464 1464 1464
1482 1482 1481 1481 1480 1479 1478 1477 1476 1476 1475 1474 1473 1471 1470 1469 1467 1466 1465 1464 1462 1461 1461 1461 1460 1459 1458 1457 1456 1458 1457 1457 1457 1457 1457 1457 1457 1458
1480 1479 1479 1478 1477 1476 1475 1474 1473 1472 1471 1470 1469 1467 1466 1465 1463 1462 1460 1459 1458 1457 1456 1455 1455 1454 1453 1452 1451 1451 1451 1451 1451 1451 1451 1451 1451 1452
1477 1477 1476 1475 1474 1473 1472 1471 1470 1469 1468 1466 1465 1463 1462 1461 1459 1457 1456 1454 1453 1452 1450 1449 1448 1448 1448 1447 1446 1445 1445 1446 1446 1446 1446 1446 1445 1445
1475 1474 1473 1472 1471 1470 1469 1468 1467 1465 1464 1462 1461 1460 1458 1456 1454 1453 1451 1450 1448 1447 1445 1444 1443 1443 1442 1441 1439 1438 1439 1439 1440 1440 1440 1440 1439 1439
1473 1472 1471 1470 1469 1467 1466 1464 1463 1462 1460 1459 1457 1456 1454 1452 1450 1448 1446 1445 1443 1442 1440 1439 1438 1437 1435 1434 1434 1433 1433 1433 1433 1433 1433 1434 1434 1434